Regional Weather Roundup
Issued by NWS Upton, NY

Current Version | Previous Version | Graphics & Text | Print | Product List | Glossary Off
Versions: 1 2 3 4 5 6 7 8 9 10 11 12 13 14 15 16 17 18 19 20 21 22 23 24 25 26 27 28 29 30 31 32 33 34 35 36 37 38 39 40 41 42 43 44 45 46 47 48 49

000
ASUS41 KOKX 111105
RWROKX

REGIONAL WEATHER ROUNDUP
NATIONAL WEATHER SERVICE NEW YORK NY
700 AM EDT FRI JUL 11 2014

NOTE: "FAIR" INDICATES FEW OR NO CLOUDS BELOW 12,000 FEET WITH NO
SIGNIFICANT WEATHER AND/OR OBSTRUCTIONS TO VISIBILITY.

NYZ071-072-176-178-NJZ106-104-111200-
NEW YORK CITY METRO AREA


CITY           SKY/WX    TMP DP  RH WIND       PRES   REMARKS
CENTRAL PARK   MOSUNNY   72  56  57 VRB5      30.20R
LAGUARDIA APRT MOSUNNY   71  58  63 NE6       30.16R
KENNEDY INTL   MOSUNNY   73  60  63 NE10      30.17R
NEWARK/LIBERTY PTSUNNY   72  58  61 N12       30.17R
BRNX BOT. GARD   N/A     70  54  56 NW2       30.18S
TETERBORO      MOSUNNY   73  54  51 N7        30.16R
$$

NYZ177-179-078>081-111200-
LONG ISLAND NEW YORK

CITY           SKY/WX    TMP DP  RH WIND       PRES   REMARKS
FARMINGDALE    CLOUDY    69  59  70 NE9       30.16R
ISLIP          PTSUNNY   71  58  63 N9        30.15R
SHIRLEY        PTSUNNY   69  61  75 N6        30.16S
WESTHAMPTON    CLOUDY    68  64  87 N5        30.18R
MONTAUK POINT    N/A     67  63  87 NE3       30.18R
$$

NYZ052-065-067-111200-
HUDSON VALLEY

CITY           SKY/WX    TMP DP  RH WIND       PRES   REMARKS
WHITE PLAINS   PTSUNNY   67  55  65 N6        30.18R
NEWBURGH       MOSUNNY   63  57  82 CALM      30.22F
MONTGOMERY     SUNNY     64  57  78 CALM      30.21R
POUGHKEEPSIE   MOSUNNY   64  56  75 CALM      30.21R
ALBANY         MOSUNNY   60  54  80 CALM      30.24R
$$

NJZ001-105-106-008-010-013-015-019>022-104-111200-
NEW JERSEY

CITY           SKY/WX    TMP DP  RH WIND       PRES   REMARKS
NEWARK/LIBERTY PTSUNNY   72  58  61 N12       30.17R
TETERBORO      MOSUNNY   73  54  51 N7        30.16R
CALDWELL       MOSUNNY   66  61  84 VRB3      30.19R
MORRISTOWN     MOSUNNY   66  63  88 CALM      30.18R
SOMERVILLE     SUNNY     66  62  87 NW5       30.16R
LINDEN         FAIR      73  59  61 NE3       30.18R
SUSSEX         MOSUNNY   67  57  70 N5        30.21R
ANDOVER          N/A     62  60  93 NE3       30.21R
TRENTON        SUNNY     68  62  81 N5        30.16R
MILLVILLE      PTSUNNY   69  67  93 NE6       30.15R
ATLANTIC CITY  PTSUNNY   68  68 100 N3        30.15R FOG
WRIGHTSTOWN    SUNNY     67  65  93 N3        30.14R
TOMS RIVER     CLOUDY    66  66 100 CALM      30.16R
BELMAR         SUNNY     70  64  83 NE3       30.16R
$$

PAZ047>061-062-071-111200-
EASTERN PENNSYLVANIA

CITY           SKY/WX    TMP DP  RH WIND       PRES   REMARKS
PHILADELPHIA   MOSUNNY   72  62  71 N8        30.17R
ALLENTOWN      PTSUNNY   67  61  81 CALM      30.19R
SCRANTON       MOSUNNY   61  55  81 SE3       30.23R
$$

CTZ002-004>006-009-010-012-RIZ004-006-007-MAZ004-011-015-111200-
SOUTHERN NEW ENGLAND
 IN CT

CITY           SKY/WX    TMP DP  RH WIND       PRES   REMARKS
BRADLEY INTL   MOSUNNY   63  55  75 N6        30.20R
HARTFORD       PTSUNNY   64  55  72 N9        30.20R
DANBURY        MOSUNNY   64  56  75 CALM      30.21R
WTRBRY/OXFORD  MOSUNNY   64  50  59 NE9       30.22R
BRIDGEPORT     PTSUNNY   70  55  59 N8        30.17R
MERIDEN        MOSUNNY   66  54  65 N5        30.19R
NEW HAVEN      PTSUNNY   70  56  61 N12       30.17R
CHESTER        FAIR      66  55  68 N6        30.19R
GROTON         CLOUDY    66  61  84 N9        30.16R
WILLIMANTIC    CLOUDY    63  58  83 N3        30.19R

 IN RI

CITY           SKY/WX    TMP DP  RH WIND       PRES   REMARKS
PROVIDENCE     CLOUDY    67  58  72 N6        30.18R
BLOCK ISLAND   CLOUDY    66  63  88 NE3       30.17R
WESTERLY       CLOUDY    66  62  87 N5        30.17R

 IN MA

CITY           SKY/WX    TMP DP  RH WIND       PRES   REMARKS
BOSTON         CLOUDY    67  56  67 N10       30.20R
WORCESTER      CLOUDY    63  50  62 N8        30.23R
WESTFIELD      MOSUNNY   63  56  78 N7        30.21R
PROVINCETOWN   CLOUDY    64  61  88 NE7       30.19R
NANTUCKET      CLOUDY    66  65  96 NE7       30.16R
$$

ANZ330-335-338-340-345-350-353-355-111200-
COASTAL MARINE OBSERVATIONS


STATION/POSITION TIME  SKY/WX   TEMP    WIND        PRES    VSBY  WAVE
                                AIR SEA DIR/SP/G                  HT/PER
                 (UTC)          (F)     (DEG/KT/KT) (MB)    (MI)  (FT/S)
NY HARB ENTRANCE NOT AVBL
4S FIRE IS       1000               68                N/A           3/ 6
23SW MTP         1100            66 65              1020.6          3/ 7
HUDSON CANYON    1100            70 70  270/  4/  6 1019.9          3/ 6
EXECUTION ROCKS  1100            68 66   20/  6/  8   N/A
WESTERN LI SOUND 1100            70     360/  8/ 12   N/A           0
CENTRAL LI SOUND 1000            69 70  360/ 12/ 14   N/A           1
EASTERN LI SOUND 1000            66 65   40/ 10/ 12   N/A
ROBBINS REEF     1000            72      10/  8/  9   N/A
$$


>>>>>>>>>>>>>>>>>>>>>>>>>>>> KEY <<<<<<<<<<<<<<<<<<<<<<<<<<<
>                                                          <
>     SKY/WX - SKY CONDITION/PRESENT WEATHER               <
>     TMP    - TEMPERATURE IN FAHRENHEIT                   <
>     DP     - DEWPOINT IN FAHRENHEIT                      <
>     RH     - RELATIVE HUMIDITY IN PERCENT                <
>     WIND   - DIRECTION AND SPEED IN MPH                  <
>     PRES   - MEAN SEA LEVEL PRESSURE IN INCHES OF HG     <
>     WCI    - WIND CHILL INDEX                            <
>     VSB    - VISIBILITY IN MILES                         <
>     HX     - HEAT INDEX                                  <
>     TC     - TEMPERATURE IN CELSIUS                      <
>     VRB    - VARIABLE WIND DIRECTION                     <
>                                                          <
>>>>>>>>>>>>>>>>>>>>>>>>>>>> KEY <<<<<<<<<<<<<<<<<<<<<<<<<<<





USA.gov is the U.S. government's official web portal to all federal, state and local government web resources and services.